| time (UTC) | temp F | wind direction | speed MPH | gust MPH | rain 1hr in | rain 24hr in | rain mn in | humidity % | barometer mb |
| 20260505113957 | 52 | 355 | 0.0 | 1.0 | 0.00 | 0.06 | 0.06 | 93 | 1014.8 |
| 20260505113454 | 52 | 318 | 3.0 | 6.0 | 0.00 | 0.06 | 0.06 | 92 | 1014.7 |
| 20260505112950 | 52 | 293 | 5.0 | 6.0 | 0.00 | 0.06 | 0.06 | 93 | 1014.9 |
| 20260505112447 | 52 | 355 | 2.0 | 5.0 | 0.00 | 0.06 | 0.06 | 93 | 1014.7 |
| 20260505111944 | 51 | 313 | 1.0 | 6.0 | 0.00 | 0.06 | 0.06 | 94 | 1014.6 |
| 20260505111443 | 51 | 17 | 0.0 | 2.0 | 0.00 | 0.06 | 0.06 | 94 | 1014.6 |
| 20260505110940 | 51 | 6 | 0.0 | 2.0 | 0.00 | 0.06 | 0.06 | 94 | 1014.6 |
| 20260505110437 | 51 | 230 | 2.0 | 3.0 | 0.00 | 0.06 | 0.06 | 94 | 1014.6 |
| 20260505101908 | 51 | 352 | 0.0 | 1.0 | 0.00 | 0.06 | 0.06 | 94 | 1014.8 |
| 20260505101403 | 51 | 353 | 0.0 | 1.0 | 0.00 | 0.06 | 0.06 | 93 | 1014.9 |
| 20260505100859 | 51 | 337 | 1.0 | 2.0 | 0.00 | 0.06 | 0.06 | 93 | 1015.0 |
| 20260505100355 | 51 | 313 | 1.0 | 2.0 | 0.00 | 0.06 | 0.06 | 94 | 1014.9 |
| 20260505095851 | 51 | 106 | 1.0 | 1.0 | 0.00 | 0.06 | 0.06 | 94 | 1015.0 |
| 20260505095349 | 51 | 2 | 0.0 | 0.0 | 0.00 | 0.06 | 0.06 | 94 | 1015.0 |
| 20260505094845 | 51 | 359 | 0.0 | 2.0 | 0.00 | 0.06 | 0.06 | 94 | 1014.9 |
| 20260505094342 | 51 | 17 | 0.0 | 0.0 | 0.00 | 0.06 | 0.06 | 94 | 1015.0 |
| 20260505093837 | 51 | 356 | 0.0 | 1.0 | 0.00 | 0.06 | 0.06 | 94 | 1015.0 |
| 20260505093335 | 51 | 359 | 0.0 | 0.0 | 0.00 | 0.06 | 0.06 | 94 | 1014.8 |
| 20260505092832 | 51 | 4 | 0.0 | 1.0 | 0.00 | 0.06 | 0.06 | 94 | 1015.0 |
| 20260505092331 | 51 | 7 | 0.0 | 1.0 | 0.00 | 0.06 | 0.06 | 93 | 1015.1 |
| 20260505091827 | 51 | 310 | 1.0 | 6.0 | 0.00 | 0.06 | 0.06 | 94 | 1015.2 |
| 20260505091325 | 52 | 11 | 1.0 | 2.0 | 0.00 | 0.06 | 0.06 | 94 | 1015.0 |
| 20260505090823 | 52 | 104 | 2.0 | 5.0 | 0.07 | 0.06 | 0.06 | 94 | 1015.0 |
| 20260505090321 | 52 | 297 | 3.0 | 3.0 | 0.07 | 0.06 | 0.06 | 94 | 1015.5 |
| 20260505085818 | 52 | 356 | 0.0 | 1.0 | 0.00 | 0.05 | 0.05 | 94 | 1015.5 |
| 20260505085316 | 52 | 327 | 1.0 | 2.0 | 0.00 | 0.05 | 0.05 | 94 | 1015.7 |
| 20260505084813 | 52 | 305 | 2.0 | 5.0 | 0.00 | 0.05 | 0.05 | 94 | 1015.6 |
| 20260505084312 | 52 | 12 | 0.0 | 0.0 | 0.00 | 0.05 | 0.05 | 94 | 1015.6 |
| 20260505083808 | 52 | 353 | 0.0 | 1.0 | 0.00 | 0.05 | 0.05 | 94 | 1015.6 |
| 20260505083306 | 52 | 7 | 0.0 | 2.0 | 0.00 | 0.05 | 0.05 | 94 | 1015.6 |
| 20260505082802 | 52 | 352 | 0.0 | 3.0 | 0.00 | 0.05 | 0.05 | 94 | 1015.6 |
| 20260505082259 | 52 | 13 | 0.0 | 1.0 | 0.00 | 0.05 | 0.05 | 94 | 1015.6 |
| 20260505081755 | 52 | 336 | 2.0 | 3.0 | 0.00 | 0.05 | 0.05 | 94 | 1015.6 |
| 20260505081252 | 52 | 347 | 0.0 | 0.0 | 0.05 | 0.05 | 0.05 | 94 | 1015.4 |
| 20260505080749 | 52 | 305 | 3.0 | 6.0 | 0.05 | 0.05 | 0.05 | 94 | 1015.6 |
| 20260505080244 | 52 | 3 | 1.0 | 5.0 | 0.00 | 0.04 | 0.04 | 94 | 1015.6 |
| 20260505075740 | 52 | 279 | 1.0 | 3.0 | 0.00 | 0.04 | 0.04 | 94 | 1015.6 |
| 20260505075238 | 52 | 309 | 2.0 | 5.0 | 0.07 | 0.04 | 0.04 | 93 | 1015.7 |
| 20260505074735 | 52 | 291 | 4.0 | 11.0 | 0.07 | 0.04 | 0.04 | 93 | 1015.7 |
| 20260505074232 | 52 | 254 | 4.0 | 6.0 | 0.05 | 0.03 | 0.03 | 93 | 1015.3 |
| 20260505073729 | 52 | 31 | 4.0 | 8.0 | 0.05 | 0.03 | 0.03 | 93 | 1015.5 |
| 20260505073227 | 52 | 292 | 4.0 | 5.0 | 0.07 | 0.02 | 0.02 | 94 | 1015.5 |
| 20260505072723 | 52 | 9 | 1.0 | 2.0 | 0.12 | 0.02 | 0.02 | 94 | 1015.8 |
| 20260505072220 | 52 | 273 | 2.0 | 5.0 | 0.05 | 0.01 | 0.01 | 94 | 1015.9 |
| 20260505071715 | 52 | 301 | 2.0 | 5.0 | 0.00 | 0.00 | 0.00 | 94 | 1015.9 |
| 20260505071213 | 52 | 350 | 0.0 | 3.0 | 0.00 | 0.00 | 0.00 | 94 | 1015.9 |
| 20260505070710 | 52 | 304 | 2.0 | 6.0 | 0.00 | 0.00 | 0.00 | 94 | 1016.0 |
| 20260505070206 | 51 | 307 | 3.0 | 3.0 | 0.00 | 0.00 | 0.00 | 94 | 1016.1 |
| 20260505065702 | 51 | 5 | 1.0 | 2.0 | 0.00 | 0.15 | 0.15 | 94 | 1015.9 |
| 20260505065159 | 51 | 353 | 0.0 | 2.0 | 0.00 | 0.15 | 0.15 | 94 | 1015.9 |
| 20260505064656 | 51 | 357 | 2.0 | 2.0 | 0.00 | 0.15 | 0.15 | 94 | 1016.0 |
| 20260505064154 | 51 | 344 | 1.0 | 2.0 | 0.00 | 0.15 | 0.15 | 94 | 1015.7 |
| 20260505063651 | 51 | 2 | 0.0 | 2.0 | 0.00 | 0.15 | 0.15 | 94 | 1015.7 |
| 20260505063147 | 51 | 333 | 3.0 | 3.0 | 0.00 | 0.15 | 0.15 | 94 | 1015.5 |
| 20260505062643 | 51 | 351 | 1.0 | 2.0 | 0.00 | 0.15 | 0.15 | 94 | 1015.4 |
| 20260505062141 | 51 | 334 | 1.0 | 3.0 | 0.00 | 0.15 | 0.15 | 94 | 1015.5 |
| 20260505061638 | 51 | 355 | 1.0 | 2.0 | 0.07 | 0.15 | 0.15 | 94 | 1015.5 |
| 20260505061136 | 51 | 350 | 1.0 | 2.0 | 0.07 | 0.15 | 0.15 | 94 | 1015.7 |
| 20260505060633 | 51 | 336 | 2.0 | 2.0 | 0.05 | 0.14 | 0.14 | 93 | 1015.8 |
| 20260505060130 | 51 | 350 | 1.0 | 2.0 | 0.05 | 0.14 | 0.14 | 93 | 1015.9 |
| 20260505055625 | 51 | 7 | 0.0 | 2.0 | 0.00 | 0.13 | 0.13 | 93 | 1015.6 |
| 20260505055122 | 51 | 342 | 1.0 | 2.0 | 0.07 | 0.13 | 0.13 | 93 | 1015.6 |
| 20260505054620 | 51 | 330 | 1.0 | 1.0 | 0.07 | 0.13 | 0.13 | 93 | 1015.8 |
| 20260505054118 | 51 | 357 | 2.0 | 3.0 | 0.00 | 0.12 | 0.12 | 93 | 1015.8 |
| 20260505053614 | 50 | 311 | 2.0 | 3.0 | 0.07 | 0.12 | 0.12 | 93 | 1015.8 |
| 20260505053111 | 50 | 311 | 3.0 | 3.0 | 0.07 | 0.12 | 0.12 | 92 | 1015.8 |
| 20260505052608 | 50 | 334 | 2.0 | 6.0 | 0.05 | 0.11 | 0.11 | 92 | 1015.8 |
| 20260505052106 | 50 | 12 | 1.0 | 3.0 | 0.05 | 0.11 | 0.11 | 92 | 1015.7 |
| 20260505051602 | 50 | 333 | 2.0 | 3.0 | 0.00 | 0.10 | 0.10 | 92 | 1015.6 |
| 20260505051101 | 50 | 359 | 1.0 | 2.0 | 0.00 | 0.10 | 0.10 | 92 | 1015.7 |
| 20260505050558 | 50 | 330 | 1.0 | 3.0 | 0.07 | 0.10 | 0.10 | 91 | 1015.9 |
| 20260505041526 | 52 | 358 | 0.0 | 1.0 | 0.05 | 0.03 | 0.03 | 90 | 1016.6 |
| 20260505041023 | 52 | 327 | 2.0 | 8.0 | 0.05 | 0.03 | 0.03 | 89 | 1016.5 |
| 20260505040520 | 52 | 326 | 2.0 | 5.0 | 0.00 | 0.02 | 0.02 | 88 | 1016.5 |
| 20260505040018 | 52 | 338 | 1.0 | 2.0 | 0.00 | 0.02 | 0.02 | 88 | 1016.3 |
| 20260505035514 | 52 | 19 | 1.0 | 2.0 | 0.00 | 0.02 | 0.02 | 88 | 1016.2 |
| 20260505035011 | 52 | 355 | 0.0 | 1.0 | 0.00 | 0.02 | 0.02 | 89 | 1015.8 |
| 20260505034507 | 52 | 23 | 0.0 | 0.0 | 0.00 | 0.02 | 0.02 | 88 | 1015.6 |
| 20260505034004 | 53 | 27 | 0.0 | 0.0 | 0.07 | 0.02 | 0.02 | 88 | 1015.5 |
| 20260505033501 | 52 | 2 | 0.0 | 0.0 | 0.07 | 0.02 | 0.02 | 88 | 1015.3 |
| 20260505032959 | 53 | 355 | 0.0 | 2.0 | 0.00 | 0.01 | 0.01 | 87 | 1015.1 |
| 20260505032456 | 53 | 3 | 1.0 | 5.0 | 0.00 | 0.01 | 0.01 | 87 | 1015.1 |
| 20260505031952 | 53 | 9 | 0.0 | 1.0 | 0.00 | 0.01 | 0.01 | 88 | 1015.0 |
| 20260505031449 | 53 | 286 | 1.0 | 8.0 | 0.00 | 0.01 | 0.01 | 87 | 1015.0 |
| 20260505030946 | 53 | 339 | 3.0 | 5.0 | 0.05 | 0.01 | 0.01 | 88 | 1014.8 |
| 20260505030442 | 53 | 270 | 5.0 | 8.0 | 0.05 | 0.01 | 0.01 | 87 | 1015.0 |
| 20260505025937 | 53 | 313 | 4.0 | 7.0 | 0.00 | 0.00 | 0.00 | 87 | 1015.3 |
| 20260505025435 | 53 | 308 | 3.0 | 7.0 | 0.00 | 0.00 | 0.00 | 86 | 1015.4 |
| 20260505024934 | 54 | 298 | 4.0 | 6.0 | 0.00 | 0.00 | 0.00 | 86 | 1015.4 |
| 20260505024431 | 54 | 339 | 1.0 | 8.0 | 0.00 | 0.00 | 0.00 | 86 | 1015.4 |
| 20260505023928 | 54 | 282 | 1.0 | 9.0 | 0.00 | 0.00 | 0.00 | 86 | 1015.5 |
| 20260505023425 | 54 | 295 | 3.0 | 5.0 | 0.00 | 0.00 | 0.00 | 87 | 1015.2 |
| 20260505022922 | 54 | 341 | 2.0 | 5.0 | 0.00 | 0.00 | 0.00 | 87 | 1015.5 |
| 20260505022420 | 54 | 347 | 1.0 | 10.0 | 0.00 | 0.00 | 0.00 | 87 | 1015.3 |
| 20260505021917 | 54 | 278 | 2.0 | 5.0 | 0.00 | 0.00 | 0.00 | 87 | 1015.2 |
| 20260505021413 | 54 | 297 | 3.0 | 5.0 | 0.00 | 0.00 | 0.00 | 87 | 1015.1 |
| 20260505020909 | 54 | 321 | 4.0 | 6.0 | 0.00 | 0.00 | 0.00 | 86 | 1015.2 |
| 20260505020404 | 54 | 271 | 5.0 | 10.0 | 0.00 | 0.00 | 0.00 | 86 | 1015.1 |
| 20260505015901 | 54 | 316 | 3.0 | 7.0 | 0.00 | 0.00 | 0.00 | 87 | 1015.3 |
| 20260505015359 | 54 | 339 | 3.0 | 8.0 | 0.00 | 0.00 | 0.00 | 87 | 1015.2 |
| 20260505014856 | 55 | 296 | 3.0 | 7.0 | 0.00 | 0.00 | 0.00 | 87 | 1015.3 |
| 20260505014352 | 55 | 283 | 6.0 | 8.0 | 0.00 | 0.00 | 0.00 | 87 | 1015.4 |
| 20260505013849 | 55 | 326 | 3.0 | 13.0 | 0.00 | 0.00 | 0.00 | 86 | 1015.7 |
| 20260505013346 | 55 | 266 | 2.0 | 6.0 | 0.00 | 0.00 | 0.00 | 87 | 1015.6 |
| 20260505012845 | 55 | 231 | 4.0 | 8.0 | 0.00 | 0.00 | 0.00 | 86 | 1015.6 |
| 20260505012343 | 55 | 276 | 6.0 | 10.0 | 0.00 | 0.00 | 0.00 | 86 | 1015.5 |
| 20260505011838 | 55 | 320 | 3.0 | 7.0 | 0.00 | 0.00 | 0.00 | 86 | 1015.5 |
| 20260505011335 | 56 | 318 | 4.0 | 7.0 | 0.00 | 0.00 | 0.00 | 86 | 1015.6 |
| 20260505010831 | 56 | 348 | 2.0 | 3.0 | 0.00 | 0.00 | 0.00 | 86 | 1015.7 |
| 20260505010327 | 56 | 254 | 3.0 | 6.0 | 0.00 | 0.00 | 0.00 | 86 | 1015.6 |
| 20260505005823 | 56 | 298 | 2.0 | 6.0 | 0.00 | 0.00 | 0.00 | 86 | 1015.5 |
| 20260505005321 | 56 | 291 | 2.0 | 7.0 | 0.00 | 0.00 | 0.00 | 86 | 1015.8 |
| 20260505004818 | 56 | 282 | 3.0 | 9.0 | 0.00 | 0.00 | 0.00 | 86 | 1015.6 |
| 20260505004314 | 56 | 269 | 5.0 | 8.0 | 0.00 | 0.00 | 0.00 | 85 | 1015.9 |
| 20260505003812 | 56 | 296 | 4.0 | 9.0 | 0.00 | 0.00 | 0.00 | 85 | 1015.7 |
| 20260505003309 | 57 | 280 | 5.0 | 8.0 | 0.00 | 0.00 | 0.00 | 85 | 1015.6 |
| 20260505002805 | 57 | 313 | 3.0 | 7.0 | 0.00 | 0.00 | 0.00 | 85 | 1015.7 |
| 20260505002304 | 57 | 278 | 7.0 | 8.0 | 0.00 | 0.00 | 0.00 | 85 | 1015.9 |
| 20260505001800 | 57 | 311 | 5.0 | 10.0 | 0.00 | 0.00 | 0.00 | 85 | 1015.6 |
| 20260505001257 | 57 | 2 | 2.0 | 3.0 | 0.00 | 0.00 | 0.00 | 85 | 1015.7 |
| 20260505000754 | 57 | 324 | 3.0 | 8.0 | 0.00 | 0.00 | 0.00 | 86 | 1015.4 |
| 20260505000252 | 57 | 238 | 5.0 | 7.0 | 0.00 | 0.00 | 0.00 | 85 | 1015.3 |
| 20260504235748 | 57 | 296 | 3.0 | 5.0 | 0.00 | 0.00 | 0.00 | 86 | 1015.5 |
| 20260504235244 | 58 | 312 | 8.0 | 10.0 | 0.00 | 0.00 | 0.00 | 84 | 1015.6 |
| 20260504234742 | 59 | 304 | 3.0 | 5.0 | 0.00 | 0.00 | 0.00 | 84 | 1015.5 |
| 20260504234239 | 59 | 17 | 3.0 | 5.0 | 0.00 | 0.00 | 0.00 | 83 | 1015.5 |
| 20260504233735 | 59 | 286 | 4.0 | 10.0 | 0.00 | 0.00 | 0.00 | 82 | 1015.7 |
| 20260504233231 | 59 | 306 | 2.0 | 7.0 | 0.00 | 0.00 | 0.00 | 81 | 1015.5 |
| 20260504232729 | 59 | 302 | 5.0 | 7.0 | 0.00 | 0.00 | 0.00 | 80 | 1015.2 |
| 20260504232225 | 59 | 295 | 7.0 | 10.0 | 0.00 | 0.00 | 0.00 | 80 | 1015.1 |
| 20260504231722 | 60 | 312 | 6.0 | 7.0 | 0.00 | 0.00 | 0.00 | 79 | 1015.3 |
| 20260504231218 | 60 | 355 | 3.0 | 8.0 | 0.00 | 0.00 | 0.00 | 79 | 1015.2 |
| 20260504230714 | 60 | 294 | 3.0 | 6.0 | 0.00 | 0.00 | 0.00 | 78 | 1015.4 |
| 20260504230213 | 60 | 296 | 7.0 | 7.0 | 0.00 | 0.00 | 0.00 | 78 | 1015.4 |
| 20260504225712 | 60 | 303 | 1.0 | 7.0 | 0.00 | 0.00 | 0.00 | 78 | 1015.3 |
| 20260504225208 | 60 | 303 | 7.0 | 9.0 | 0.00 | 0.00 | 0.00 | 77 | 1015.3 |
| 20260504224705 | 61 | 281 | 9.0 | 14.0 | 0.00 | 0.00 | 0.00 | 76 | 1015.4 |
| 20260504224202 | 61 | 294 | 7.0 | 9.0 | 0.00 | 0.00 | 0.00 | 75 | 1015.5 |
| 20260504223658 | 61 | 309 | 2.0 | 9.0 | 0.00 | 0.00 | 0.00 | 75 | 1015.6 |
| 20260504223154 | 61 | 331 | 2.0 | 7.0 | 0.00 | 0.00 | 0.00 | 74 | 1015.4 |
| 20260504222651 | 62 | 294 | 3.0 | 3.0 | 0.00 | 0.00 | 0.00 | 73 | 1015.6 |
| 20260504222148 | 62 | 279 | 4.0 | 6.0 | 0.00 | 0.00 | 0.00 | 72 | 1015.6 |
| 20260504221645 | 61 | 256 | 5.0 | 8.0 | 0.00 | 0.00 | 0.00 | 73 | 1015.6 |
| 20260504221143 | 62 | 286 | 3.0 | 6.0 | 0.00 | 0.00 | 0.00 | 72 | 1015.5 |
| 20260504220638 | 62 | 273 | 8.0 | 11.0 | 0.00 | 0.00 | 0.00 | 71 | 1015.7 |
| 20260504220137 | 62 | 321 | 1.0 | 6.0 | 0.00 | 0.00 | 0.00 | 75 | 1015.5 |
| 20260504215632 | 63 | 215 | 7.0 | 11.0 | 0.00 | 0.00 | 0.00 | 74 | 1015.5 |
| 20260504215130 | 63 | 198 | 5.0 | 6.0 | 0.00 | 0.00 | 0.00 | 73 | 1015.4 |
| 20260504214626 | 63 | 192 | 6.0 | 8.0 | 0.00 | 0.00 | 0.00 | 73 | 1015.4 |
| 20260504214122 | 63 | 346 | 1.0 | 3.0 | 0.00 | 0.00 | 0.00 | 74 | 1015.3 |
| 20260504213619 | 64 | 299 | 2.0 | 5.0 | 0.00 | 0.00 | 0.00 | 72 | 1015.6 |
| 20260504213116 | 62 | 304 | 3.0 | 5.0 | 0.00 | 0.00 | 0.00 | 73 | 1015.4 |
| 20260504212612 | 63 | 354 | 1.0 | 3.0 | 0.00 | 0.00 | 0.00 | 72 | 1015.6 |
| 20260504212109 | 62 | 323 | 2.0 | 8.0 | 0.00 | 0.00 | 0.00 | 73 | 1015.5 |
| 20260504211606 | 63 | 332 | 0.0 | 1.0 | 0.00 | 0.00 | 0.00 | 72 | 1015.4 |
| 20260504211103 | 63 | 33 | 1.0 | 5.0 | 0.00 | 0.00 | 0.00 | 73 | 1015.4 |
| 20260504210600 | 63 | 233 | 1.0 | 3.0 | 0.00 | 0.00 | 0.00 | 72 | 1015.5 |
| 20260504210056 | 62 | 325 | 1.0 | 7.0 | 0.00 | 0.00 | 0.00 | 72 | 1015.8 |
| 20260504205554 | 63 | 283 | 2.0 | 2.0 | 0.00 | 0.00 | 0.00 | 72 | 1016.0 |
| 20260504205052 | 62 | 343 | 0.0 | 6.0 | 0.00 | 0.00 | 0.00 | 73 | 1015.9 |
| 20260504204550 | 62 | 291 | 0.0 | 2.0 | 0.00 | 0.00 | 0.00 | 74 | 1015.8 |
| 20260504204049 | 61 | 181 | 3.0 | 6.0 | 0.00 | 0.00 | 0.00 | 75 | 1015.6 |
| 20260504203546 | 64 | 247 | 2.0 | 5.0 | 0.00 | 0.00 | 0.00 | 72 | 1015.8 |
| 20260504203044 | 61 | 5 | 3.0 | 9.0 | 0.00 | 0.00 | 0.00 | 74 | 1015.7 |
| 20260504202539 | 63 | 326 | 0.0 | 2.0 | 0.00 | 0.00 | 0.00 | 69 | 1015.6 |
| 20260504202036 | 62 | 349 | 2.0 | 11.0 | 0.00 | 0.00 | 0.00 | 66 | 1015.6 |
| 20260504201533 | 62 | 268 | 5.0 | 10.0 | 0.00 | 0.00 | 0.00 | 68 | 1015.5 |
| 20260504201031 | 62 | 324 | 2.0 | 8.0 | 0.00 | 0.00 | 0.00 | 69 | 1015.5 |
| 20260504200527 | 61 | 307 | 6.0 | 8.0 | 0.00 | 0.00 | 0.00 | 70 | 1015.6 |
| 20260504200024 | 61 | 24 | 0.0 | 3.0 | 0.00 | 0.00 | 0.00 | 69 | 1015.7 |
| 20260504195520 | 62 | 287 | 3.0 | 7.0 | 0.00 | 0.00 | 0.00 | 70 | 1015.8 |
| 20260504195017 | 62 | 254 | 3.0 | 7.0 | 0.00 | 0.00 | 0.00 | 69 | 1015.7 |
| 20260504194513 | 63 | 313 | 0.0 | 2.0 | 0.00 | 0.00 | 0.00 | 69 | 1015.7 |
| 20260504194009 | 63 | 341 | 2.0 | 6.0 | 0.00 | 0.00 | 0.00 | 69 | 1015.5 |
| 20260504193506 | 62 | 316 | 3.0 | 5.0 | 0.00 | 0.00 | 0.00 | 69 | 1015.9 |
| 20260504193005 | 62 | 313 | 1.0 | 5.0 | 0.00 | 0.00 | 0.00 | 70 | 1015.6 |
| 20260504192502 | 62 | 220 | 1.0 | 5.0 | 0.00 | 0.00 | 0.00 | 69 | 1015.5 |
| 20260504192000 | 62 | 282 | 5.0 | 8.0 | 0.00 | 0.00 | 0.00 | 69 | 1015.6 |
| 20260504191458 | 64 | 306 | 2.0 | 3.0 | 0.00 | 0.00 | 0.00 | 68 | 1015.8 |
| 20260504190953 | 64 | 345 | 0.0 | 0.0 | 0.00 | 0.00 | 0.00 | 70 | 1015.6 |
| 20260504190449 | 64 | 51 | 0.0 | 0.0 | 0.00 | 0.00 | 0.00 | 69 | 1015.6 |
| 20260504185946 | 64 | 31 | 0.0 | 1.0 | 0.00 | 0.00 | 0.00 | 68 | 1015.8 |
| 20260504185443 | 63 | 343 | 1.0 | 2.0 | 0.00 | 0.00 | 0.00 | 69 | 1015.8 |
| 20260504184939 | 63 | 346 | 1.0 | 2.0 | 0.00 | 0.00 | 0.00 | 69 | 1015.8 |
| 20260504184435 | 63 | 337 | 1.0 | 3.0 | 0.00 | 0.00 | 0.00 | 68 | 1015.7 |
| 20260504183931 | 63 | 353 | 1.0 | 3.0 | 0.00 | 0.00 | 0.00 | 69 | 1015.9 |
| 20260504183428 | 63 | 330 | 1.0 | 2.0 | 0.00 | 0.00 | 0.00 | 70 | 1015.8 |
| 20260504182926 | 63 | 337 | 1.0 | 2.0 | 0.00 | 0.00 | 0.00 | 69 | 1015.7 |
| 20260504182423 | 62 | 12 | 1.0 | 3.0 | 0.00 | 0.00 | 0.00 | 71 | 1015.7 |
| 20260504181920 | 62 | 315 | 1.0 | 5.0 | 0.00 | 0.00 | 0.00 | 70 | 1015.8 |
| 20260504181417 | 62 | 358 | 0.0 | 0.0 | 0.00 | 0.00 | 0.00 | 72 | 1015.7 |
| 20260504180916 | 62 | 37 | 0.0 | 2.0 | 0.00 | 0.00 | 0.00 | 70 | 1015.7 |
| 20260504180414 | 62 | 3 | 0.0 | 2.0 | 0.00 | 0.00 | 0.00 | 70 | 1015.7 |
| 20260504175912 | 62 | 328 | 1.0 | 2.0 | 0.00 | 0.00 | 0.00 | 71 | 1015.8 |
| 20260504175409 | 62 | 18 | 0.0 | 1.0 | 0.00 | 0.00 | 0.00 | 72 | 1015.8 |
| 20260504174907 | 63 | 79 | 0.0 | 3.0 | 0.00 | 0.00 | 0.00 | 71 | 1015.6 |
| 20260504174404 | 63 | 14 | 0.0 | 1.0 | 0.00 | 0.00 | 0.00 | 72 | 1015.4 |
| 20260504173901 | 64 | 345 | 1.0 | 2.0 | 0.00 | 0.00 | 0.00 | 69 | 1015.5 |
| 20260504173357 | 63 | 27 | 0.0 | 1.0 | 0.00 | 0.00 | 0.00 | 70 | 1015.5 |
| 20260504172855 | 63 | 273 | 3.0 | 8.0 | 0.00 | 0.00 | 0.00 | 72 | 1015.4 |
| 20260504172351 | 63 | 8 | 0.0 | 3.0 | 0.00 | 0.00 | 0.00 | 73 | 1015.5 |
| 20260504171847 | 62 | 311 | 2.0 | 3.0 | 0.00 | 0.00 | 0.00 | 75 | 1015.5 |
| 20260504171344 | 60 | 296 | 1.0 | 3.0 | 0.00 | 0.00 | 0.00 | 78 | 1015.3 |
| 20260504170842 | 59 | 320 | 2.0 | 2.0 | 0.00 | 0.00 | 0.00 | 80 | 1015.5 |
| 20260504170338 | 59 | 305 | 4.0 | 6.0 | 0.00 | 0.00 | 0.00 | 80 | 1015.2 |
| 20260504160256 | 58 | 296 | 3.0 | 3.0 | 0.00 | 0.00 | 0.00 | 84 | 1015.6 |
| 20260504150722 | 54 | 350 | 0.0 | 1.0 | 0.00 | 0.00 | 0.00 | 88 | 1015.3 |
| 20260504150219 | 53 | 354 | 1.0 | 1.0 | 0.00 | 0.00 | 0.00 | 89 | 1015.3 |
| 20260504141148 | 48 | 347 | 0.0 | 1.0 | 0.00 | 0.00 | 0.00 | 93 | 1015.5 |
| 20260504140645 | 48 | 4 | 0.0 | 0.0 | 0.00 | 0.00 | 0.00 | 94 | 1015.4 |
| 20260504140140 | 48 | 356 | 0.0 | 0.0 | 0.00 | 0.00 | 0.00 | 94 | 1015.3 |
| 20260504130609 | 48 | 347 | 1.0 | 1.0 | 0.00 | 0.00 | 0.00 | 93 | 1014.9 |
| 20260504130105 | 49 | 348 | 0.0 | 0.0 | 0.00 | 0.00 | 0.00 | 93 | 1014.9 |